Temp
-13 -13 -13 -14 -14 -14 -14 -14 -14 -14 -15 -16 -16 -16 -14 -15 -14 -12 -12 -12 -12 -11 -12 -12 -13 -12 -12 -11 -12 -13 -12 -12 -11 -11 -11 -9 -11 -10 -9 -9 -9 -9 -10 -10
-13 -13 -14 -14 -14 -15 -15 -15 -15 -15 -15 -16 -16 -16 -16 -16 -16 -13 -13 -13 -13 -12 -12 -13 -14 -13 -12 -11 -12 -13 -13 -12 -12 -12 -11 -10 -10 -8 -9 -9 -9 -9 -9 -10
-13 -13 -14 -15 -15 -16 -17 -17 -16 -16 -15 -16 -16 -16 -16 -16 -17 -14 -14 -14 -14 -13 -13 -13 -14 -13 -12 -12 -12 -13 -13 -13 -12 -13 -13 -12 -10 -10 -9 -9 -9 -9 -9 -10
-13 -14 -14 -15 -16 -17 -17 -17 -17 -17 -17 -17 -17 -17 -16 -16 -16 -16 -15 -15 -15 -15 -14 -14 -13 -14 -12 -12 -12 -12 -14 -13 -13 -12 -13 -12 -11 -10 -10 -10 -10 -9 -9 -10
-14 -15 -15 -16 -16 -18 -18 -18 -18 -18 -18 -18 -17 -18 -15 -16 -16 -15 -16 -16 -16 -16 -16 -14 -14 -13 -14 -13 -12 -13 -14 -14 -14 -13 -13 -13 -12 -11 -10 -11 -10 -10 -9 -10
-15 -16 -16 -16 -17 -18 -18 -18 -18 -18 -19 -18 -17 -17 -17 -16 -16 -17 -17 -17 -17 -17 -16 -15 -15 -14 -14 -14 -14 -13 -13 -14 -14 -13 -13 -13 -13 -12 -12 -12 -11 -11 -11 -10
-15 -17 -18 -18 -18 -18 -18 -19 -18 -18 -18 -17 -17 -18 -18 -16 -17 -16 -16 -17 -17 -17 -16 -15 -15 -15 -15 -14 -14 -14 -14 -14 -14 -14 -13 -13 -13 -13 -13 -12 -12 -11 -11 -11
-16 -16 -18 -18 -18 -18 -18 -18 -19 -18 -18 -18 -17 -19 -16 -17 -17 -17 -17 -16 -17 -17 -17 -17 -16 -15 -15 -14 -14 -14 -14 -14 -14 -14 -14 -14 -13 -13 -13 -13 -12 -12 -12 -11
-17 -17 -18 -18 -18 -18 -19 -19 -19 -18 -18 -19 -18 -18 -17 -17 -18 -17 -17 -17 -17 -17 -17 -15 -16 -16 -15 -15 -14 -14 -14 -14 -14 -14 -14 -14 -14 -13 -13 -12 -12 -11 -12 -12
-17 -17 -18 -19 -20 -20 -20 -20 -19 -19 -19 -18 -18 -19 -19 -18 -18 -17 -18 -18 -18 -17 -17 -17 -17 -16 -16 -16 -15 -14 -14 -14 -14 -14 -14 -14 -14 -14 -13 -13 -12 -13 -13 -12
-17 -17 -17 -19 -20 -20 -21 -20 -19 -19 -19 -19 -19 -18 -19 -18 -18 -18 -18 -18 -18 -18 -18 -18 -17 -18 -17 -16 -16 -15 -15 -15 -14 -14 -14 -14 -14 -14 -14 -14 -13 -13 -13 -14
-16 -17 -18 -18 -20 -20 -20 -20 -19 -20 -20 -19 -19 -18 -18 -19 -18 -18 -18 -17 -17 -18 -18 -18 -19 -18 -17 -17 -16 -16 -15 -15 -15 -14 -14 -14 -14 -14 -14 -14 -13 -13 -13 -13
-16 -18 -18 -18 -20 -20 -20 -20 -20 -20 -20 -20 -20 -19 -19 -19 -18 -18 -18 -18 -18 -17 -18 -18 -17 -18 -17 -17 -17 -17 -16 -15 -15 -15 -15 -14 -14 -14 -14 -14 -13 -13 -13 -13
-18 -18 -19 -19 -19 -20 -20 -20 -20 -20 -20 -20 -19 -19 -20 -19 -19 -19 -19 -19 -18 -18 -19 -18 -19 -19 -18 -17 -17 -17 -17 -16 -15 -15 -15 -14 -14 -14 -14 -14 -14 -13 -13 -13
-18 -19 -20 -20 -20 -20 -20 -20 -20 -20 -19 -19 -20 -19 -20 -20 -21 -20 -19 -19 -19 -18 -19 -19 -19 -19 -18 -18 -18 -17 -17 -17 -16 -16 -16 -16 -15 -15 -14 -14 -14 -14 -13 -13
-19 -19 -19 -19 -20 -20 -19 -20 -20 -21 -20 -20 -20 -19 -20 -21 -20 -19 -19 -18 -19 -18 -19 -19 -18 -18 -18 -19 -18 -18 -16 -17 -17 -17 -17 -16 -16 -15 -15 -15 -14 -14 -13 -13
-20 -20 -20 -20 -20 -20 -20 -20 -20 -20 -21 -21 -20 -20 -20 -20 -20 -21 -21 -20 -19 -18 -17 -18 -19 -18 -18 -18 -19 -18 -19 -18 -18 -17 -17 -17 -17 -16 -16 -16 -15 -14 -14 -13
-20 -20 -20 -20 -20 -20 -21 -20 -20 -20 -21 -20 -20 -19 -19 -20 -20 -20 -20 -21 -20 -20 -19 -18 -19 -19 -19 -19 -19 -19 -18 -18 -17 -17 -17 -17 -17 -17 -17 -17 -16 -16 -15 -14
-20 -20 -20 -20 -20 -20 -21 -21 -20 -20 -21 -20 -20 -20 -20 -20 -20 -21 -20 -20 -20 -20 -20 -20 -20 -19 -19 -19 -19 -19 -18 -18 -17 -17 -17 -17 -17 -17 -17 -17 -17 -16 -16 -16
-20 -20 -20 -21 -20 -20 -20 -20 -21 -20 -20 -21 -20 -20 -20 -20 -20 -20 -21 -21 -20 -19 -19 -20 -20 -19 -20 -19 -19 -18 -18 -17 -18 -18 -18 -18 -18 -17 -17 -16 -16 -16 -16 -16
-20 -20 -21 -20 -20 -20 -20 -20 -21 -21 -20 -20 -20 -20 -20 -20 -20 -20 -20 -20 -20 -20 -20 -20 -19 -19 -18 -18 -18 -18 -17 -18 -18 -18 -18 -18 -17 -17 -17 -16 -16 -16 -16 -16
-21 -20 -20 -20 -20 -21 -21 -21 -21 -21 -20 -20 -20 -20 -20 -20 -20 -20 -20 -20 -19 -19 -19 -20 -20 -19 -19 -19 -18 -18 -17 -18 -18 -18 -17 -17 -17 -17 -17 -17 -17 -17 -17 -17
-21 -20 -21 -21 -21 -21 -21 -21 -21 -20 -20 -20 -20 -20 -20 -20 -20 -19 -19 -19 -18 -19 -18 -19 -19 -19 -19 -19 -18 -17 -17 -17 -17 -18 -18 -18 -17 -17 -17 -17 -17 -17 -18 -18
-20 -20 -21 -21 -21 -21 -21 -21 -21 -21 -21 -20 -20 -20 -20 -19 -19 -18 -18 -18 -18 -18 -18 -18 -17 -17 -17 -17 -17 -17 -17 -18 -18 -18 -18 -18 -18 -18 -18 -18 -19 -19 -18 -18
-20 -21 -21 -21 -20 -20 -21 -21 -21 -20 -20 -20 -20 -20 -20 -19 -19 -19 -18 -18 -18 -18 -18 -17 -17 -17 -17 -17 -16 -17 -18 -18 -17 -17 -17 -17 -18 -18 -18 -18 -19 -19 -19 -19
-20 -20 -20 -20 -20 -21 -20 -20 -20 -19 -19 -19 -18 -19 -19 -19 -20 -19 -18 -18 -18 -18 -18 -17 -17 -17 -17 -17 -17 -17 -17 -17 -17 -17 -17 -17 -18 -18 -18 -18 -19 -19 -19 -19
Height
5740 5740 5741 5740 5738 5736 5735 5734 5733 5736 5737 5735 5735 5736 5738 5742 5743 5748 5753 5755 5756 5760 5760 5762 5760 5765 5770 5772 5780 5786 5791 5794 5798 5802 5808 5811 5817 5821 5827 5829 5833 5831 5840 5843
5735 5734 5733 5732 5730 5728 5726 5724 5724 5724 5726 5724 5725 5725 5730 5731 5734 5736 5739 5742 5745 5748 5751 5751 5749 5752 5758 5761 5764 5774 5778 5779 5785 5790 5795 5799 5801 5802 5809 5815 5817 5821 5829 5832
5728 5728 5725 5723 5721 5720 5717 5715 5715 5713 5714 5715 5716 5714 5719 5720 5720 5724 5729 5733 5734 5738 5740 5739 5737 5743 5746 5750 5751 5761 5765 5769 5771 5776 5780 5783 5792 5789 5795 5799 5807 5813 5815 5821
5722 5722 5718 5716 5714 5714 5708 5710 5706 5704 5703 5700 5704 5700 5708 5712 5712 5713 5716 5720 5722 5724 5725 5727 5727 5730 5736 5739 5741 5748 5753 5758 5759 5761 5768 5771 5775 5779 5785 5790 5793 5799 5802 5807
5716 5712 5710 5706 5705 5704 5700 5698 5696 5695 5692 5690 5692 5691 5699 5700 5699 5701 5706 5707 5711 5712 5712 5715 5714 5718 5723 5727 5730 5735 5740 5743 5746 5749 5752 5759 5761 5766 5768 5773 5778 5787 5792 5798
5706 5705 5701 5697 5695 5693 5691 5686 5683 5683 5681 5678 5685 5685 5684 5689 5692 5693 5696 5697 5700 5702 5704 5706 5707 5707 5711 5715 5719 5721 5727 5729 5733 5737 5741 5745 5749 5752 5755 5761 5767 5773 5782 5787
5690 5688 5688 5686 5680 5685 5682 5675 5671 5669 5669 5667 5677 5671 5672 5682 5681 5681 5681 5685 5688 5688 5689 5692 5696 5699 5701 5703 5705 5709 5713 5718 5721 5724 5729 5732 5737 5741 5744 5749 5754 5761 5765 5772
5682 5678 5684 5678 5673 5672 5671 5668 5663 5656 5657 5660 5664 5660 5668 5670 5672 5674 5672 5674 5677 5678 5680 5682 5686 5688 5689 5692 5693 5698 5703 5706 5710 5712 5717 5720 5724 5729 5732 5737 5741 5746 5753 5758
5674 5669 5672 5669 5660 5658 5658 5658 5655 5647 5647 5649 5653 5657 5657 5660 5662 5664 5659 5665 5666 5668 5669 5671 5676 5676 5678 5681 5685 5687 5691 5694 5695 5700 5703 5706 5710 5714 5717 5721 5724 5731 5739 5744
5666 5658 5660 5659 5652 5649 5649 5645 5645 5642 5640 5640 5642 5648 5651 5651 5652 5654 5652 5655 5657 5659 5659 5662 5665 5665 5667 5669 5672 5674 5678 5682 5686 5689 5692 5695 5699 5702 5706 5710 5715 5718 5723 5729
5656 5650 5646 5643 5642 5638 5636 5635 5634 5634 5634 5633 5633 5641 5641 5643 5646 5647 5647 5645 5650 5651 5652 5654 5655 5658 5658 5660 5663 5666 5668 5671 5676 5679 5681 5685 5688 5691 5694 5697 5701 5704 5710 5715
5646 5638 5633 5632 5631 5628 5627 5626 5625 5626 5626 5623 5624 5630 5634 5637 5638 5639 5635 5639 5637 5642 5643 5644 5648 5648 5650 5652 5653 5656 5659 5662 5665 5669 5672 5676 5679 5682 5684 5688 5693 5695 5700 5706
5635 5628 5623 5625 5624 5621 5621 5621 5621 5619 5618 5619 5619 5620 5624 5625 5627 5632 5631 5631 5630 5629 5634 5633 5634 5636 5639 5643 5646 5647 5648 5651 5656 5660 5663 5667 5670 5673 5675 5678 5682 5685 5690 5694
5628 5623 5619 5617 5617 5616 5615 5615 5615 5612 5613 5610 5612 5611 5617 5616 5618 5619 5620 5625 5624 5623 5626 5628 5629 5629 5629 5629 5633 5636 5638 5641 5644 5647 5650 5654 5658 5662 5666 5669 5673 5676 5680 5685
5620 5618 5615 5613 5611 5610 5609 5609 5609 5605 5607 5604 5606 5606 5610 5610 5610 5609 5610 5612 5611 5611 5616 5618 5618 5618 5619 5619 5620 5623 5627 5630 5634 5638 5641 5642 5645 5649 5653 5656 5660 5664 5670 5674
5614 5613 5610 5609 5606 5603 5602 5602 5599 5599 5598 5596 5597 5598 5597 5597 5598 5598 5598 5597 5601 5605 5604 5606 5607 5605 5605 5604 5609 5610 5613 5615 5621 5624 5627 5629 5632 5636 5640 5644 5648 5652 5656 5661
5609 5607 5605 5604 5599 5598 5600 5595 5593 5592 5593 5590 5590 5592 5589 5588 5586 5586 5584 5586 5589 5590 5593 5595 5597 5596 5599 5596 5597 5600 5603 5602 5605 5610 5614 5616 5618 5620 5624 5628 5632 5638 5643 5648
5606 5604 5601 5599 5595 5595 5593 5590 5588 5589 5588 5585 5583 5583 5580 5579 5580 5581 5579 5581 5579 5577 5578 5579 5583 5585 5586 5587 5590 5590 5591 5593 5594 5596 5598 5599 5601 5604 5608 5611 5616 5621 5626 5631
5601 5599 5596 5593 5591 5591 5589 5586 5585 5583 5582 5577 5577 5575 5572 5569 5570 5571 5569 5569 5568 5568 5566 5566 5567 5568 5569 5572 5573 5573 5576 5578 5579 5582 5583 5584 5584 5587 5589 5594 5599 5602 5606 5613
5595 5594 5593 5589 5588 5587 5584 5583 5581 5577 5575 5572 5569 5567 5565 5563 5559 5559 5557 5554 5552 5550 5551 5552 5553 5555 5555 5558 5557 5558 5560 5561 5563 5565 5566 5565 5567 5569 5571 5574 5577 5581 5585 5592
5592 5589 5590 5587 5585 5584 5580 5578 5576 5572 5569 5564 5561 5557 5553 5550 5548 5545 5544 5542 5541 5538 5535 5533 5531 5534 5538 5539 5540 5541 5542 5543 5545 5545 5545 5547 5548 5548 5549 5551 5553 5557 5562 5569
5588 5588 5585 5583 5581 5578 5575 5571 5566 5562 5558 5553 5548 5544 5540 5535 5531 5528 5526 5524 5523 5522 5520 5518 5514 5515 5516 5520 5521 5523 5525 5526 5526 5526 5526 5527 5526 5527 5528 5531 5533 5535 5539 5545
5585 5585 5583 5582 5579 5573 5570 5563 5557 5551 5546 5540 5533 5527 5521 5516 5511 5508 5507 5506 5505 5505 5503 5503 5501 5501 5502 5504 5505 5507 5509 5510 5510 5508 5509 5509 5509 5509 5511 5513 5514 5516 5519 5527
5582 5581 5579 5577 5574 5570 5563 5557 5549 5540 5532 5523 5515 5507 5500 5495 5493 5492 5493 5493 5493 5492 5491 5491 5491 5491 5492 5492 5494 5496 5497 5496 5494 5494 5494 5495 5494 5493 5494 5497 5499 5505 5510 5520
5579 5578 5576 5573 5568 5565 5555 5546 5534 5526 5517 5508 5500 5491 5484 5481 5481 5479 5481 5481 5481 5481 5482 5482 5482 5483 5483 5483 5486 5486 5486 5485 5485 5484 5484 5482 5479 5478 5479 5485 5493 5500 5508 5518
5576 5574 5572 5568 5562 5552 5542 5532 5522 5514 5506 5498 5491 5484 5477 5472 5469 5468 5470 5470 5472 5473 5473 5474 5473 5474 5475 5477 5477 5477 5478 5477 5477 5477 5476 5474 5473 5472 5475 5481 5489 5497 5506 5515
Wind_Speed
22 24 25 28 33 36 38 38 39 37 34 31 33 37 41 32 43 51 51 52 52 54 56 55 56 55 50 50 45 48 51 69 66 69 70 68 76 73 73 70 69 63 62 59
24 24 27 30 33 34 36 38 41 42 40 42 42 41 35 36 46 48 41 43 46 50 50 50 51 53 51 51 47 43 59 56 73 68 74 74 74 66 79 75 77 66 65 66
28 28 30 31 33 33 39 40 39 41 43 41 49 54 43 41 43 49 44 40 43 43 46 49 51 50 51 49 48 37 48 57 64 79 75 83 82 69 67 69 72 70 64 72
30 31 34 36 34 32 40 39 42 40 39 35 29 41 50 52 52 53 49 40 43 43 47 49 48 39 49 49 45 39 45 55 58 61 80 82 83 89 75 84 83 74 69 79
28 32 35 39 38 29 31 35 36 36 40 39 42 39 43 44 48 47 37 31 35 40 45 47 47 45 43 44 44 43 45 56 56 53 56 83 87 92 86 76 65 78 70 75
28 27 30 38 38 35 30 36 42 38 40 44 39 44 44 36 43 45 37 34 29 34 42 48 51 50 47 43 41 43 42 51 59 57 50 58 77 92 84 77 77 83 88 78
38 39 41 36 43 38 43 38 46 43 44 42 29 34 46 32 33 36 31 37 37 41 45 43 41 45 44 44 45 44 42 44 52 56 53 55 53 71 91 81 78 76 84 84
43 45 36 38 43 49 45 45 45 47 45 41 36 26 23 24 26 28 26 28 39 46 49 47 42 39 48 48 48 45 43 41 44 45 49 47 52 46 53 71 85 90 58 67
43 48 44 43 52 35 43 47 39 30 32 44 43 35 27 29 26 35 40 26 34 42 49 44 38 41 36 40 44 46 46 44 46 45 47 46 46 48 43 46 50 65 82 54
52 55 50 47 50 51 41 39 32 37 42 44 43 42 38 30 31 30 23 23 35 45 48 46 41 41 37 34 38 41 42 42 44 45 46 48 47 45 48 46 47 51 45 63
49 49 45 37 39 43 44 33 31 29 29 39 38 25 19 24 29 30 28 34 28 36 43 41 38 37 37 38 37 38 39 39 38 40 41 42 45 46 43 42 42 39 38 35
43 41 32 27 29 27 30 31 34 33 31 26 34 40 26 27 37 34 25 28 34 38 45 44 37 40 42 41 40 40 40 38 38 37 38 37 39 40 39 41 44 46 43 42
41 39 34 23 21 27 23 25 32 35 34 34 37 36 35 30 32 37 25 40 44 37 35 33 37 32 35 33 35 41 41 40 40 39 40 38 37 39 38 38 41 41 41 42
32 27 25 22 17 24 29 26 27 30 34 30 36 18 25 31 36 36 39 30 32 36 35 38 32 38 39 44 39 40 42 43 43 42 43 42 41 41 41 42 43 43 42 41
27 21 22 23 22 23 27 31 32 35 31 32 24 35 27 27 32 34 38 42 42 33 34 44 43 44 41 36 37 38 39 45 46 43 41 41 43 45 46 47 47 47 46 44
24 20 22 19 22 24 26 26 23 17 18 25 31 29 27 32 34 35 41 49 55 47 47 37 37 35 40 43 32 40 42 40 42 42 44 46 46 45 45 47 49 50 51 49
19 20 22 18 20 21 16 19 23 25 18 25 26 26 33 30 32 35 36 40 42 50 50 51 53 49 37 39 38 47 40 37 42 46 45 46 47 49 48 48 50 50 51 52
15 18 19 17 18 14 15 17 19 17 21 24 24 26 33 33 18 25 36 39 39 43 48 48 50 52 49 54 54 51 43 41 44 47 48 50 52 53 52 52 52 50 52 54
18 16 15 17 18 14 16 22 22 16 20 25 25 30 30 34 32 30 34 32 38 47 46 47 46 44 59 48 48 56 63 64 54 53 54 56 58 60 59 57 57 60 58 56
15 13 12 15 16 13 15 15 16 22 22 24 28 31 30 30 34 34 35 38 42 48 50 51 49 54 45 52 49 52 56 56 57 56 58 62 63 64 62 63 63 63 66 64
14 13 15 14 20 19 21 24 25 29 33 34 36 38 41 40 39 40 41 44 45 47 51 55 58 60 59 59 62 63 60 59 57 58 62 62 63 65 68 70 67 62 62 61
12 13 14 19 20 24 26 32 34 36 37 39 39 40 43 45 46 48 49 51 53 55 57 58 62 61 60 58 55 54 56 55 56 59 59 59 55 52 48 48 49 54 53 56
12 13 16 17 20 27 30 39 42 44 45 45 49 52 55 54 47 42 36 37 37 35 37 37 39 43 46 46 46 45 46 49 51 48 44 45 46 47 46 45 45 50 43 46
11 11 16 21 26 31 34 36 40 46 50 53 55 52 47 43 35 34 33 32 28 30 25 21 23 22 23 30 33 34 31 32 36 39 39 35 36 37 37 38 35 32 34 40
11 13 17 24 27 29 35 44 47 45 44 40 40 39 40 36 31 28 24 24 23 24 27 28 25 21 22 22 20 19 18 22 22 23 27 29 24 25 27 28 30 33 36 39
11 16 21 26 32 39 39 39 37 28 27 28 26 23 22 25 24 25 27 30 25 23 27 24 18 17 20 15 21 22 19 20 18 18 17 12 12 16 21 21 23 30 35 36
Wind_Direction
270 272 276 273 272 271 268 264 259 258 248 233 235 238 245 254 253 247 249 252 253 250 250 249 256 261 264 265 255 234 233 231 235 234 232 230 239 242 241 252 251 232 230 230
280 281 276 273 272 270 266 266 265 263 250 228 227 233 227 228 237 254 257 252 248 248 252 255 257 260 260 263 261 248 232 239 229 239 235 233 239 240 239 241 249 241 258 230
283 285 287 287 281 272 270 273 271 267 262 255 240 234 223 227 241 257 256 258 255 252 249 249 253 258 260 262 262 254 236 237 239 231 237 236 230 241 247 240 247 252 250 246
279 287 285 283 280 280 276 278 283 273 267 263 251 251 242 236 240 251 262 252 249 251 251 249 249 254 253 259 262 254 238 233 242 242 234 237 237 235 237 242 248 245 243 255
288 285 284 281 286 282 272 281 278 283 265 253 256 249 263 249 250 257 254 236 236 243 253 257 259 258 255 257 258 250 240 236 241 250 248 235 239 239 243 246 249 247 251 255
289 288 283 279 285 270 262 258 267 269 267 260 268 260 266 268 261 251 247 237 247 250 246 251 253 256 256 257 255 257 248 241 242 240 249 251 242 241 244 249 246 250 247 251
307 303 295 286 284 286 270 243 260 252 257 274 273 263 258 271 264 254 236 229 235 253 255 250 253 256 257 255 254 252 253 246 243 246 248 253 254 247 245 248 251 253 253 248
291 290 281 274 276 281 279 276 274 275 254 273 271 264 282 255 248 231 250 231 229 243 250 259 260 266 256 250 253 256 255 252 248 249 246 246 249 248 253 253 251 254 255 253
282 282 286 284 286 280 281 290 277 269 265 266 262 264 282 262 255 241 239 217 225 234 243 261 271 268 259 250 248 248 247 247 249 247 247 249 248 248 255 262 259 258 252 256
287 292 290 278 277 281 280 282 274 277 278 272 263 274 272 265 245 241 210 220 242 239 248 262 264 258 260 260 253 251 248 245 245 247 248 250 251 253 246 246 254 261 262 245
294 295 297 285 275 269 271 275 259 261 264 261 268 262 238 252 266 254 232 218 237 249 254 259 267 274 262 257 256 253 253 252 246 245 246 247 251 252 253 256 259 260 258 250
299 302 296 286 261 267 276 267 253 271 272 261 260 260 263 265 253 250 247 232 227 241 243 251 254 260 261 260 258 259 255 252 252 247 244 243 246 248 250 251 251 254 256 257
309 302 297 294 272 261 262 249 257 264 264 262 267 268 259 250 252 246 251 256 248 224 246 235 247 260 263 260 262 263 258 255 254 255 252 249 245 249 250 250 252 252 253 254
305 298 290 296 274 254 261 256 247 269 267 273 265 287 259 266 260 270 269 254 236 231 227 246 257 259 274 272 269 261 261 259 255 252 253 252 251 250 247 248 250 250 249 249
303 292 287 292 290 279 271 267 268 274 272 273 276 261 271 284 278 268 264 251 255 245 248 257 260 259 260 258 263 265 259 259 259 255 255 254 251 248 248 249 250 249 250 250
299 299 294 296 289 279 277 283 275 266 267 260 267 267 255 260 261 261 261 250 250 251 255 243 248 247 247 245 243 264 270 252 251 250 249 250 251 252 249 248 246 247 249 250
300 304 304 317 288 283 290 288 277 269 263 274 268 267 264 260 262 253 245 256 259 261 256 256 259 258 250 247 257 274 270 251 246 250 251 252 254 255 254 253 252 249 246 244
283 306 312 318 305 292 290 289 292 283 275 281 272 262 266 270 311 270 261 255 257 265 264 252 246 246 251 258 262 258 260 259 252 252 254 257 257 256 256 257 256 254 254 251
297 299 310 317 317 305 279 274 280 298 284 274 274 283 283 287 281 271 268 262 259 257 269 258 254 257 255 253 254 252 255 265 266 261 258 260 260 260 259 258 257 258 258 258
293 290 301 319 321 329 295 301 302 297 287 288 288 288 283 277 273 270 270 272 271 270 269 267 268 257 254 246 257 255 258 263 265 263 263 263 265 264 262 261 261 259 259 255
283 311 307 307 311 308 304 302 296 293 289 288 285 286 286 286 283 278 274 273 269 266 268 271 269 264 260 258 258 264 269 268 267 266 264 264 264 264 264 263 262 257 254 249
280 303 297 320 310 304 302 301 297 295 291 291 289 286 286 287 284 280 275 271 267 265 264 263 264 264 264 266 267 266 269 268 267 268 270 270 267 263 258 252 253 257 261 245
268 278 289 292 300 298 306 301 301 300 299 296 293 289 287 289 285 278 268 269 272 275 272 268 266 264 264 263 261 262 265 267 268 266 262 261 258 257 257 253 254 263 247 224
273 281 293 292 298 310 304 304 305 300 295 292 292 292 291 288 280 270 272 267 267 274 271 274 275 266 259 258 258 261 260 256 256 256 256 256 259 258 251 250 240 230 218 206
269 287 303 309 310 315 306 306 299 299 301 306 303 302 297 295 283 278 266 264 267 269 264 272 276 266 266 260 262 256 254 254 261 261 258 263 260 253 236 220 215 209 194 195
275 294 313 322 321 327 322 317 318 321 313 304 315 332 324 302 286 274 261 266 261 259 267 269 260 261 247 267 262 254 260 265 263 259 253 243 260 245 204 196 199 198 199 196